Weather History for KC75 - January, 2014

Change the Weather History Date:

Tuesday, January 28, 2014

  Actual Average (KPIA) Record (KPIA)
Temperature  
Mean Temperature 0 °F 25 °F  
Max Temperature 9 °F 33 °F 62 °F (1914)
Min Temperature -10 °F 17 °F -22 °F (1885)
Degree Days  
Heating Degree Days 66 40  
Month to date heating degree days 1120  
Since 1 July heating degree days 3398  
Cooling Degree Days 0 0  
Month to date cooling degree days 0  
Year to date cooling degree days 0  
Moisture  
Dew Point -8 °F    
Average Humidity 66    
Maximum Humidity 79    
Minimum Humidity 50    
Precipitation  
Precipitation 0.00 in 0.05 in 0.93 in (2006)
Month to date precipitation 1.62  
Year to date precipitation 1.62  
Snow  
Snow 0.00 in 0.20 in 1.40 in (2003)
Month to date snowfall 6.2  
Since 1 July snowfall 14.4  
Snow Depth -    
Sea Level Pressure  
Sea Level Pressure 30.40 in    
Wind  
Wind Speed 5 mph (WSW)    
Max Wind Speed 13 mph    
Max Gust Speed 21 mph    
Visibility 10 miles    
Events      
T = Trace of Precipitation, MM = Missing Value Source: NWS Daily Summary

Daily Weather History Graph

Daily Weather History Graph

Search for Another Location

Airport or City:

Trip Planner

Search our weather history database for the weather conditions in past years. The results will help you decide how hot, cold, wet, or windy it might be!

Date:

Astronomy

Jan. 28, 2014 Rise Set
Actual Time 7:11 AM CST 5:09 PM CST
Civil Twilight 6:42 AM CST 5:39 PM CST
Nautical Twilight 6:09 AM CST 6:12 PM CST
Astronomical Twilight 5:36 AM CST 6:44 PM CST
Moon 4:53 AM CST (1/28) 2:59 PM CST (1/28)
Length of Visible Light 10h 56m
Length of Day
9h 57m
Waning Crescent, 7% of the Moon is Illuminated
Jan 28
Waning Crescent
Jan 30
New
Feb 6
First Quarter
Feb 14
Full
Feb 22
Last Quarter

Hourly Weather History & Observations

Time (CST) Temp. Windchill Dew Point Humidity Pressure Visibility Wind Dir Wind Speed Gust Speed Precip Events Conditions
12:15 AM -5.1 °F -17.6 °F -13.5 °F 67% 30.49 in 10.0 mi WNW 5.8 mph - N/A   Clear
12:35 AM -4.9 °F -15.6 °F -13.0 °F 68% 30.49 in 10.0 mi WNW 4.6 mph - N/A   Clear
1:15 AM -4.9 °F -18.8 °F -13.0 °F 68% 30.48 in 10.0 mi WNW 6.9 mph - N/A   Clear
1:55 AM -5.3 °F -13.8 °F -13.2 °F 69% 30.47 in 10.0 mi West 3.5 mph - N/A   Clear
2:15 AM -5.3 °F -13.8 °F -13.2 °F 69% 30.48 in 10.0 mi West 3.5 mph - N/A   Clear
2:35 AM -6.0 °F -14.7 °F -13.2 °F 71% 30.48 in 10.0 mi West 3.5 mph - N/A   Clear
2:55 AM -7.4 °F -16.3 °F -14.1 °F 73% 30.48 in 10.0 mi WSW 3.5 mph - N/A   Clear
3:15 AM -7.2 °F - -13.7 °F 73% 30.46 in 10.0 mi Calm Calm - N/A   Clear
3:35 AM -8.3 °F - -14.1 °F 76% 30.45 in 10.0 mi Calm Calm - N/A   Clear
3:55 AM -10.5 °F -19.8 °F -15.9 °F 77% 30.45 in 10.0 mi SW 3.5 mph - N/A   Clear
4:15 AM -8.7 °F - -13.9 °F 78% 30.46 in 10.0 mi Calm Calm - N/A   Clear
4:35 AM -8.5 °F - -13.9 °F 77% 30.47 in 10.0 mi Calm Calm - N/A   Clear
4:55 AM -9.2 °F - -14.6 °F 77% 30.46 in 10.0 mi Calm Calm - N/A   Clear
5:15 AM -8.5 °F - -14.1 °F 77% 30.47 in 10.0 mi Calm Calm - N/A   Clear
5:35 AM -8.3 °F -17.3 °F -14.3 °F 75% 30.47 in 10.0 mi WSW 3.5 mph - N/A   Clear
6:15 AM -8.3 °F - -13.9 °F 77% 30.46 in 10.0 mi Calm Calm - N/A   Clear
6:35 AM -9.9 °F - -15.7 °F 76% 30.47 in 10.0 mi Calm Calm - N/A   Clear
6:55 AM -9.9 °F - -14.8 °F 79% 30.47 in 10.0 mi Calm Calm - N/A   Clear
7:15 AM -9.0 °F - -14.8 °F 76% 30.48 in 10.0 mi Calm Calm - N/A   Clear
7:35 AM -8.1 °F - -14.1 °F 75% 30.49 in 10.0 mi Calm Calm - N/A   Clear
7:55 AM -6.2 °F -17.1 °F -13.0 °F 72% 30.49 in 10.0 mi WSW 4.6 mph - N/A   Clear
8:15 AM -5.1 °F -15.8 °F -12.1 °F 72% 30.49 in 10.0 mi West 4.6 mph - N/A   Clear
8:35 AM -3.5 °F -17.1 °F -11.2 °F 69% 30.49 in 10.0 mi West 6.9 mph - N/A   Clear
8:55 AM -2.7 °F -16.2 °F -11.0 °F 68% 30.49 in 10.0 mi West 6.9 mph - N/A   Clear
9:15 AM -1.5 °F -14.7 °F -11.0 °F 64% 30.49 in 10.0 mi West 6.9 mph - N/A   Clear
9:35 AM -0.8 °F -16.2 °F -10.5 °F 63% 30.49 in 10.0 mi West 9.2 mph - N/A   Clear
9:55 AM 0.3 °F -15.8 °F -9.6 °F 63% 30.48 in 10.0 mi West 10.4 mph 20.7 mph N/A   Clear
10:35 AM 2.8 °F -12.7 °F -7.8 °F 61% 30.47 in 10.0 mi West 10.4 mph 16.1 mph N/A   Clear
10:55 AM 4.1 °F -12.7 °F -7.4 °F 59% 30.46 in 10.0 mi West 12.7 mph 18.4 mph N/A   Clear
11:15 AM 4.8 °F -11.8 °F -6.9 °F 59% 30.44 in 10.0 mi West 12.7 mph 20.7 mph N/A   Clear
11:35 AM 5.4 °F -10.4 °F -6.2 °F 59% 30.43 in 10.0 mi West 11.5 mph 20.7 mph N/A   Clear
11:55 AM 6.4 °F -9.8 °F -5.6 °F 58% 30.42 in 10.0 mi West 12.7 mph 19.6 mph N/A   Clear
12:15 PM 7.5 °F -7.7 °F -5.1 °F 56% 30.41 in 10.0 mi West 11.5 mph - N/A   Clear
12:35 PM 7.7 °F -6.6 °F -5.1 °F 56% 30.40 in 10.0 mi WNW 10.4 mph 18.4 mph N/A   Clear
12:55 PM 8.1 °F -7.7 °F -5.1 °F 55% 30.39 in 10.0 mi West 12.7 mph 17.3 mph N/A   Clear
1:15 PM 8.8 °F -6.8 °F -4.5 °F 55% 30.38 in 10.0 mi West 12.7 mph 18.4 mph N/A   Clear
1:35 PM 8.8 °F -5.3 °F -6.5 °F 50% 30.37 in 10.0 mi West 10.4 mph 20.7 mph N/A   Clear
1:55 PM 8.8 °F -4.4 °F -6.3 °F 50% 30.36 in 10.0 mi West 9.2 mph 18.4 mph N/A   Clear
2:15 PM 9.1 °F -5.6 °F -5.3 °F 52% 30.36 in 10.0 mi WNW 11.5 mph 16.1 mph N/A   Clear
2:55 PM 9.7 °F -5.7 °F -4.2 °F 54% 30.35 in 10.0 mi NW 12.7 mph - N/A   Clear
3:15 PM 9.7 °F -4.2 °F -3.6 °F 55% 30.35 in 10.0 mi WNW 10.4 mph - N/A   Clear
3:35 PM 9.3 °F -2.8 °F -4.9 °F 53% 30.35 in 10.0 mi WSW 8.1 mph - N/A   Clear
3:55 PM 9.1 °F -1.9 °F -4.9 °F 53% 30.35 in 10.0 mi West 6.9 mph 18.4 mph N/A   Clear
4:15 PM 9.3 °F -2.8 °F -4.0 °F 55% 30.34 in 10.0 mi West 8.1 mph - N/A   Clear
4:35 PM 9.3 °F -1.7 °F -3.8 °F 55% 30.34 in 10.0 mi West 6.9 mph - N/A   Clear
4:55 PM 9.5 °F -3.5 °F -4.2 °F 54% 30.33 in 10.0 mi WSW 9.2 mph - N/A   Clear
5:15 PM 8.6 °F 0.1 °F -4.2 °F 56% 30.33 in 10.0 mi WSW 4.6 mph - N/A   Clear
5:35 PM 8.2 °F - -4.0 °F 58% 30.33 in 10.0 mi Calm Calm - N/A   Clear
5:55 PM 6.8 °F - -4.4 °F 60% 30.33 in 10.0 mi Calm Calm - N/A   Clear
6:15 PM 3.2 °F - -5.3 °F 68% 30.32 in 10.0 mi Calm Calm - N/A   Clear
6:35 PM 5.5 °F - -4.0 °F 65% 30.32 in 10.0 mi Calm Calm - N/A   Clear
6:55 PM 4.5 °F - -4.4 °F 67% 30.31 in 10.0 mi Calm Calm - N/A   Clear
7:15 PM 5.2 °F -3.8 °F -4.0 °F 66% 30.30 in 10.0 mi SSW 4.6 mph - N/A   Clear
7:35 PM 5.4 °F -1.7 °F -3.8 °F 66% 30.30 in 10.0 mi SSW 3.5 mph - N/A   Clear
7:55 PM 5.0 °F -2.1 °F -3.5 °F 68% 30.30 in 10.0 mi SSW 3.5 mph - N/A   Clear
8:35 PM 3.7 °F -5.5 °F -3.6 °F 71% 30.29 in 10.0 mi SW 4.6 mph - N/A   Clear
8:55 PM 4.1 °F -3.2 °F -3.1 °F 72% 30.29 in 10.0 mi SW 3.5 mph - N/A   Clear
9:15 PM 4.3 °F -2.9 °F -2.7 °F 73% 30.29 in 10.0 mi SW 3.5 mph - N/A   Clear
9:35 PM 4.8 °F -2.3 °F -2.2 °F 73% 30.29 in 10.0 mi SSW 3.5 mph - N/A   Clear
9:55 PM 4.6 °F -2.5 °F -3.1 °F 70% 30.29 in 10.0 mi SSW 3.5 mph - N/A   Clear
10:15 PM 4.8 °F -2.3 °F -2.9 °F 70% 30.29 in 10.0 mi SSW 3.5 mph - N/A   Clear
10:35 PM 2.7 °F -4.8 °F -5.1 °F 70% 30.29 in 10.0 mi SSW 3.5 mph - N/A   Clear
10:55 PM 3.2 °F -4.2 °F -4.2 °F 71% 30.29 in 10.0 mi SSW 3.5 mph - N/A   Clear
11:15 PM 2.3 °F -5.2 °F -5.1 °F 71% 30.28 in 10.0 mi SW 3.5 mph - N/A   Clear
11:35 PM 4.1 °F -5.1 °F -4.2 °F 69% 30.28 in 10.0 mi SW 4.6 mph - N/A   Clear
11:55 PM 2.8 °F -6.6 °F -4.7 °F 71% 30.27 in 10.0 mi SSW 4.6 mph - N/A   Clear